| time (UTC) | temp F | wind direction | speed MPH | gust MPH | rain 1hr in | rain 24hr in | rain mn in | humidity % | barometer mb |
| 20260902031539 | 54 | 244 | 3.0 | 7.0 | 0.00 | 0.24 | 0.00 | 73 | 1016.1 |
| 20260902030045 | 55 | 251 | 3.0 | 7.0 | 0.00 | 0.24 | 0.00 | 74 | 1016.2 |
| 20260902024538 | 55 | 257 | 2.0 | 4.0 | 0.00 | 0.24 | 0.00 | 75 | 1016.4 |
| 20260902023043 | 55 | 242 | 3.0 | 7.0 | 0.00 | 0.24 | 0.00 | 76 | 1016.3 |
| 20260902021542 | 55 | 271 | 4.0 | 7.0 | 0.00 | 0.24 | 0.00 | 77 | 1016.4 |
| 20260902020035 | 55 | 270 | 3.0 | 7.0 | 0.00 | 0.24 | 0.00 | 78 | 1016.4 |
| 20260902014529 | 55 | 254 | 4.0 | 8.0 | 0.00 | 0.24 | 0.00 | 80 | 1016.3 |
| 20260902013026 | 55 | 266 | 3.0 | 6.0 | 0.00 | 0.24 | 0.00 | 80 | 1016.2 |
| 20260902011525 | 56 | 263 | 3.0 | 7.0 | 0.00 | 0.24 | 0.00 | 80 | 1016.1 |
| 20260902010023 | 56 | 255 | 3.0 | 7.0 | 0.00 | 0.24 | 0.00 | 79 | 1016.2 |
| 20260902004522 | 56 | 273 | 2.0 | 6.0 | 0.00 | 0.24 | 0.00 | 79 | 1016.1 |
| 20260902003022 | 56 | 258 | 2.0 | 4.0 | 0.00 | 0.24 | 0.00 | 80 | 1016.1 |
| 20260902001519 | 56 | 264 | 2.0 | 6.0 | 0.00 | 0.24 | 0.00 | 81 | 1016.1 |
| 20260902000017 | 56 | 269 | 3.0 | 8.0 | 0.00 | 0.24 | 0.00 | 82 | 1016.1 |
| 20260901234515 | 57 | 256 | 5.0 | 9.0 | 0.00 | 0.37 | 0.00 | 82 | 1016.1 |
| 20260901233015 | 57 | 257 | 3.0 | 9.0 | 0.00 | 0.37 | 0.00 | 82 | 1016.1 |
| 20260901231511 | 57 | 262 | 4.0 | 10.0 | 0.00 | 0.37 | 0.00 | 82 | 1016.0 |
| 20260901230012 | 57 | 240 | 7.0 | 13.0 | 0.00 | 0.37 | 0.00 | 83 | 1016.1 |
| 20260901224507 | 58 | 263 | 5.0 | 11.0 | 0.00 | 0.39 | 0.00 | 82 | 1016.1 |
| 20260901223006 | 58 | 271 | 4.0 | 11.0 | 0.00 | 0.39 | 0.00 | 82 | 1016.1 |
| 20260901221607 | 58 | 273 | 5.0 | 12.0 | 0.00 | 0.39 | 0.00 | 82 | 1016.0 |
| 20260901220125 | 59 | 236 | 6.0 | 14.0 | 0.00 | 0.39 | 0.00 | 82 | 1015.9 |
| 20260901214555 | 59 | 269 | 5.0 | 12.0 | 0.00 | 0.39 | 0.39 | 82 | 1015.8 |
| 20260901213114 | 59 | 302 | 6.0 | 12.0 | 0.00 | 0.39 | 0.39 | 81 | 1015.7 |
| 20260901211555 | 59 | 277 | 8.0 | 14.0 | 0.00 | 0.39 | 0.39 | 81 | 1015.8 |
| 20260901210101 | 59 | 278 | 5.0 | 10.0 | 0.00 | 0.39 | 0.39 | 80 | 1015.7 |
| 20260901204555 | 59 | 264 | 6.0 | 11.0 | 0.00 | 0.39 | 0.39 | 80 | 1015.6 |
| 20260901203101 | 59 | 228 | 6.0 | 11.0 | 0.00 | 0.39 | 0.39 | 80 | 1015.6 |
| 20260901201549 | 59 | 264 | 5.0 | 10.0 | 0.00 | 0.39 | 0.39 | 80 | 1015.5 |
| 20260901200049 | 59 | 256 | 8.0 | 13.0 | 0.00 | 0.39 | 0.39 | 80 | 1015.5 |
| 20260901194551 | 59 | 257 | 4.0 | 10.0 | 0.00 | 0.39 | 0.39 | 78 | 1015.4 |
| 20260901193052 | 59 | 254 | 4.0 | 10.0 | 0.00 | 0.39 | 0.39 | 77 | 1015.4 |
| 20260901191544 | 59 | 301 | 5.0 | 11.0 | 0.00 | 0.39 | 0.39 | 79 | 1015.3 |
| 20260901190044 | 59 | 240 | 4.0 | 11.0 | 0.00 | 0.39 | 0.39 | 79 | 1015.2 |
| 20260901184542 | 59 | 279 | 5.0 | 9.0 | 0.00 | 0.50 | 0.39 | 79 | 1015.1 |
| 20260901183047 | 59 | 290 | 6.0 | 10.0 | 0.00 | 0.50 | 0.39 | 78 | 1015.0 |
| 20260901181538 | 59 | 268 | 5.0 | 9.0 | 0.00 | 0.50 | 0.39 | 74 | 1014.8 |
| 20260901180038 | 59 | 284 | 3.0 | 7.0 | 0.00 | 0.50 | 0.39 | 72 | 1014.6 |
| 20260901174537 | 59 | 281 | 3.0 | 7.0 | 0.01 | 0.50 | 0.39 | 70 | 1014.5 |
| 20260901173050 | 59 | 276 | 3.0 | 6.0 | 0.01 | 0.50 | 0.39 | 68 | 1014.4 |
| 20260901171538 | 59 | 269 | 5.0 | 9.0 | 0.21 | 0.50 | 0.39 | 69 | 1014.6 |
| 20260901170034 | 59 | 267 | 3.0 | 10.0 | 0.21 | 0.50 | 0.39 | 71 | 1014.6 |
| 20260901164533 | 59 | 287 | 4.0 | 9.0 | 0.21 | 0.49 | 0.38 | 76 | 1014.6 |
| 20260901163132 | 60 | 275 | 5.0 | 20.0 | 0.21 | 0.49 | 0.38 | 82 | 1014.6 |
| 20260901161535 | 64 | 311 | 4.0 | 11.0 | 0.01 | 0.28 | 0.17 | 80 | 1014.3 |
| 20260901160031 | 69 | 311 | 11.0 | 19.0 | 0.01 | 0.28 | 0.17 | 70 | 1014.2 |
| 20260901154526 | 70 | 246 | 4.0 | 13.0 | 0.00 | 0.28 | 0.17 | 65 | 1013.5 |
| 20260901153031 | 70 | 256 | 8.0 | 20.0 | 0.00 | 0.28 | 0.17 | 64 | 1013.6 |
| 20260901151522 | 70 | 255 | 5.0 | 20.0 | 0.00 | 0.28 | 0.17 | 64 | 1013.5 |
| 20260901150018 | 70 | 241 | 13.0 | 20.0 | 0.00 | 0.28 | 0.17 | 64 | 1013.5 |
| 20260901144519 | 70 | 259 | 9.0 | 24.0 | 0.00 | 0.28 | 0.17 | 63 | 1013.5 |
| 20260901143015 | 70 | 249 | 11.0 | 26.0 | 0.00 | 0.28 | 0.17 | 62 | 1013.3 |
| 20260901141544 | 71 | 244 | 13.0 | 24.0 | 0.00 | 0.28 | 0.17 | 60 | 1013.2 |
| 20260901140015 | 70 | 258 | 10.0 | 22.0 | 0.00 | 0.28 | 0.17 | 62 | 1013.2 |
| 20260901134512 | 70 | 302 | 7.0 | 14.0 | 0.00 | 0.28 | 0.17 | 65 | 1013.3 |
| 20260901133010 | 69 | 294 | 8.0 | 20.0 | 0.00 | 0.28 | 0.17 | 66 | 1013.3 |
| 20260901131514 | 70 | 254 | 10.0 | 28.0 | 0.00 | 0.28 | 0.17 | 66 | 1013.2 |
| 20260901130023 | 70 | 244 | 12.0 | 21.0 | 0.00 | 0.28 | 0.17 | 66 | 1013.1 |
| 20260901124507 | 70 | 247 | 14.0 | 29.0 | 0.00 | 0.28 | 0.17 | 67 | 1013.1 |
| 20260901123008 | 68 | 252 | 13.0 | 23.0 | 0.00 | 0.28 | 0.17 | 74 | 1013.1 |
| 20260901121501 | 66 | 240 | 7.0 | 15.0 | 0.00 | 0.28 | 0.17 | 82 | 1013.4 |
| 20260901120103 | 64 | 278 | 8.0 | 17.0 | 0.00 | 0.28 | 0.17 | 83 | 1013.5 |
| 20260901114559 | 63 | 221 | 6.0 | 14.0 | 0.00 | 0.28 | 0.17 | 83 | 1013.5 |
| 20260901113059 | 63 | 269 | 10.0 | 29.0 | 0.00 | 0.28 | 0.17 | 82 | 1013.6 |
| 20260901111556 | 66 | 234 | 9.0 | 26.0 | 0.00 | 0.28 | 0.17 | 74 | 1013.4 |
| 20260901110058 | 67 | 214 | 11.0 | 18.0 | 0.00 | 0.28 | 0.17 | 74 | 1013.1 |
| 20260901104554 | 67 | 259 | 14.0 | 22.0 | 0.00 | 0.28 | 0.17 | 76 | 1013.1 |
| 20260901103047 | 66 | 248 | 5.0 | 15.0 | 0.00 | 0.28 | 0.17 | 77 | 1013.0 |
| 20260901101547 | 65 | 266 | 9.0 | 18.0 | 0.00 | 0.28 | 0.17 | 79 | 1013.0 |
| 20260901100047 | 66 | 250 | 10.0 | 17.0 | 0.00 | 0.28 | 0.17 | 77 | 1012.8 |
| 20260901094549 | 65 | 234 | 9.0 | 20.0 | 0.00 | 0.28 | 0.17 | 79 | 1012.8 |
| 20260901093041 | 65 | 236 | 8.0 | 17.0 | 0.00 | 0.28 | 0.17 | 81 | 1012.7 |
| 20260901091536 | 63 | 254 | 10.0 | 17.0 | 0.00 | 0.28 | 0.17 | 83 | 1012.7 |
| 20260901090034 | 63 | 260 | 12.0 | 22.0 | 0.00 | 0.28 | 0.17 | 83 | 1012.6 |
| 20260901084532 | 63 | 272 | 10.0 | 17.0 | 0.00 | 0.28 | 0.17 | 84 | 1012.6 |
| 20260901083030 | 63 | 269 | 13.0 | 24.0 | 0.00 | 0.28 | 0.17 | 83 | 1012.5 |
| 20260901081525 | 62 | 259 | 10.0 | 17.0 | 0.00 | 0.28 | 0.17 | 79 | 1012.3 |
| 20260901080022 | 61 | 272 | 8.0 | 14.0 | 0.01 | 0.28 | 0.17 | 72 | 1012.2 |
| 20260901074520 | 60 | 250 | 7.0 | 11.0 | 0.02 | 0.28 | 0.17 | 66 | 1012.1 |
| 20260901073018 | 60 | 242 | 7.0 | 11.0 | 0.02 | 0.28 | 0.17 | 67 | 1012.0 |
| 20260901071522 | 59 | 250 | 7.0 | 13.0 | 0.02 | 0.28 | 0.17 | 71 | 1011.8 |
| 20260901070021 | 60 | 238 | 9.0 | 17.0 | 0.02 | 0.27 | 0.16 | 77 | 1011.7 |
| 20260901064515 | 59 | 242 | 6.0 | 14.0 | 0.00 | 0.25 | 0.14 | 74 | 1011.6 |
| 20260901063009 | 59 | 259 | 9.0 | 13.0 | 0.00 | 0.25 | 0.14 | 71 | 1011.4 |
| 20260901061508 | 58 | 265 | 7.0 | 11.0 | 0.00 | 0.25 | 0.14 | 69 | 1011.3 |
| 20260901060007 | 58 | 266 | 7.0 | 11.0 | 0.00 | 0.25 | 0.14 | 68 | 1011.1 |
| 20260901054511 | 58 | 225 | 5.0 | 10.0 | 0.00 | 0.25 | 0.14 | 65 | 1011.0 |
| 20260901053004 | 57 | 232 | 6.0 | 13.0 | 0.00 | 0.25 | 0.14 | 65 | 1011.1 |
| 20260901051503 | 57 | 238 | 4.0 | 10.0 | 0.00 | 0.25 | 0.14 | 66 | 1011.0 |
| 20260901050002 | 57 | 254 | 6.0 | 13.0 | 0.00 | 0.25 | 0.14 | 66 | 1010.8 |
| 20260901044609 | 57 | 242 | 5.0 | 11.0 | 0.00 | 0.25 | 0.14 | 66 | 1010.6 |
| 20260901043056 | 57 | 229 | 7.0 | 11.0 | 0.00 | 0.25 | 0.14 | 67 | 1010.5 |
| 20260901041554 | 58 | 241 | 6.0 | 12.0 | 0.00 | 0.25 | 0.14 | 67 | 1010.5 |
| 20260901040109 | 58 | 243 | 7.0 | 11.0 | 0.00 | 0.25 | 0.14 | 69 | 1010.4 |
| 20260901034606 | 58 | 261 | 7.0 | 11.0 | 0.00 | 0.25 | 0.14 | 70 | 1010.3 |
| 20260901033051 | 58 | 252 | 7.0 | 11.0 | 0.00 | 0.25 | 0.14 | 71 | 1010.2 |